Weather History for Damascus, Syria

Change the Weather History Date:

Wednesday, February 6, 2013

  Actual Average Record
Temperature  
Mean Temperature 51 °F -  
Max Temperature 56 °F 60 °F 75 °F (2007)
Min Temperature 44 °F 36 °F 21 °F (1997)
Degree Days  
Heating Degree Days 14    
Growing Degree Days 1 (Base 50)    
Moisture  
Dew Point 43 °F    
Average Humidity 73    
Maximum Humidity 93    
Minimum Humidity 49    
Precipitation  
Precipitation 0.16 in 0.03 in - ()
Sea Level Pressure  
Sea Level Pressure 29.90 in    
Wind  
Wind Speed 5 mph ()    
Max Wind Speed 21 mph    
Max Gust Speed -    
Visibility 6.7 miles    
Events Rain    
Averages and records for this station are not official NWS values.
T = Trace of Precipitation, MM = Missing Value Source: Averaged Metar Reports

Daily Weather History Graph

Daily Weather History Graph

Search for Another Location

Airport:

Trip Planner

Search our weather history database for the weather conditions in past years. The results will help you decide how hot, cold, wet, or windy it might be!

Date:

Astronomy

Feb. 06, 2013 Rise Set
Actual Time 6:26 AM EET 5:10 PM EET
Civil Twilight 6:00 AM EET 5:36 PM EET
Nautical Twilight 5:30 AM EET 6:05 PM EET
Astronomical Twilight 5:01 AM EET 6:34 PM EET
Moon 2:43 AM EET (2/6) 1:12 PM EET (2/6)
Length of Visible Light 11h 35m
Length of Day
10h 44m
Waning Crescent, 20% of the Moon is Illuminated
Feb 6
Waning Crescent
Feb 10
New
Feb 17
First Quarter
Feb 25
Full
Mar 4
Last Quarter

Hourly Weather History & Observations

Time (EET) Temp. Windchill Dew Point Humidity Pressure Visibility Wind Dir Wind Speed Gust Speed Precip Events Conditions
12:00 AM 50.0 °F - 37.4 °F 62% 29.98 in - NNE 2.3 mph - N/A   Clear
1:00 AM 50.0 °F - 35.6 °F 58% 29.98 in - NNE 4.6 mph - N/A   Clear
2:00 AM 51 °F - 38 °F 49% 29.91 in 9 mi NE 8.9 mph - -   Partly Cloudy
2:00 AM 51.8 °F - 37.4 °F 58% 29.95 in - NE 9.2 mph - N/A   Clear
3:00 AM 50.0 °F - 35.6 °F 58% 29.92 in - NE 4.6 mph - N/A   Clear
4:00 AM 48.2 °F - 37.4 °F 66% 29.92 in - NNE 2.3 mph - N/A   Clear
5:00 AM 46.4 °F - 37.4 °F 71% 29.89 in - Calm Calm - N/A   Clear
6:00 AM 46.4 °F 41.1 °F 35.6 °F 66% 29.86 in - NNE 11.5 mph - N/A   Clear
7:00 AM 50.0 °F - 35.6 °F 58% 29.89 in 6.2 mi NNW 11.5 mph - N/A   Scattered Clouds
8:00 AM 50 °F - 39 °F 57% 29.89 in 7 mi NNE 4.5 mph - - Rain Light Rain
8:00 AM 50.0 °F - 39.2 °F 66% 29.92 in 6.2 mi NNE 4.6 mph - N/A Rain Light Rain
9:00 AM 48.2 °F - 41.0 °F 76% 29.89 in 6.2 mi NNE 9.2 mph - N/A   Mostly Cloudy
11:00 AM 51.8 °F - 46.4 °F 82% 29.86 in 6.2 mi ESE 4.6 mph - N/A   Mostly Cloudy
12:00 PM 53.6 °F - 48.2 °F 82% 29.86 in 6.2 mi Calm Calm - N/A   Scattered Clouds
1:00 PM 53.6 °F - 46.4 °F 77% 29.86 in 6.2 mi Calm Calm - N/A Rain Rain
2:00 PM 53 °F - 47 °F 73% 29.82 in 9 mi Calm Calm - - Rain Light Drizzle
2:00 PM 53.6 °F - 46.4 °F 77% 29.86 in 6.2 mi Calm Calm - N/A   Mostly Cloudy
3:00 PM 53.6 °F - 50.0 °F 88% 29.83 in 6.2 mi Calm Calm - N/A   Mostly Cloudy
4:00 PM 55.4 °F - 50.0 °F 82% 29.83 in 6.2 mi Calm Calm - N/A   Scattered Clouds
5:00 PM 53.6 °F - 50.0 °F 88% 29.86 in 6.2 mi Calm Calm - N/A   Scattered Clouds
6:00 PM 53.6 °F - 50.0 °F 88% 29.86 in 6.2 mi Calm Calm - N/A   Mostly Cloudy
7:00 PM 51.8 °F - 48.2 °F 88% 29.92 in 6.2 mi WNW 20.7 mph - N/A Rain Rain
8:00 PM 51 °F - 45 °F 73% 29.88 in 9 mi West 20.1 mph - - Rain Light Rain
8:00 PM 51.8 °F - 44.6 °F 76% 29.92 in 6.2 mi West 20.7 mph - N/A Rain Rain
9:00 PM 50.0 °F - 42.8 °F 76% 29.92 in 6.2 mi West 6.9 mph - N/A   Scattered Clouds
10:00 PM 46.4 °F 41.9 °F 42.8 °F 87% 29.98 in 6.2 mi West 9.2 mph - N/A   Scattered Clouds
11:00 PM 44.6 °F 40.7 °F 42.8 °F 93% 29.98 in 6.2 mi WSW 6.9 mph - N/A   Scattered Clouds